Location: Austin
(30.3000°N, 97.7500°W)
Time: 06:26:35
(UTC-06:00)

Cosmos 1626 Rocket - Pass Details

Date: 03 March 2026
Orbit: 598 x 622 km, 82.5° (Epoch: 6 March)

Event Time Altitude Azimuth Distance (km) Brightness Sun altitude
Rises 19:39:50 0° 190° (S) 2,862 7.1 -15.6°
Reaches altitude 10° 19:42:02 10° 192° (SSW) 1,965 6.3 -16.0°
Maximum altitude 19:46:23 70° 277° (W) 658 3.8 -17.0°
Drops below altitude 10° 19:50:46 10° 1° (N) 1,989 6.2 -17.9°
Sets 19:53:01 0° 3° (N) 2,901 7.0 -18.4°
